[[{"header":{"parameterUnit":"m.s-1","parameterCategory":1,"la1":30.2991,"la2":30.254,"lo1":-89.0895,"lo2":-89.0444,"dy":0.0017,"dx":0.0017,"nx":28,"ny":28,"refTime":"2025-07-31T03:00:00:Z","depth":0,"parameterNumber":2,"parameterNumberName":"U-component_of_WINDS"},"data":[0,0,0,0,0,0,0,0,0,0,0,0,0,0,0,0,0,0,0,0,0,0,0,0,0,0,0,0,0,0,0,0,0,0,0,0,0,0,0,0,0,0,0,0,0,0,0,0,0,0,0,0,0,0,0,0,0,0,3.5054,3.5055,0,3.5145,3.5146,3.5147,3.509,3.5087,3.5084,3.5082,3.5173,3.5177,3.5182,0,0,0,0,0,0,0,0,0,0,0,0,0,3.4828,3.4832,3.5054,3.5056,3.5057,3.5145,3.5146,3.5148,3.509,3.5087,3.5084,3.508,3.5171,3.5177,3.5183,0,0,0,0,0,0,0,0,0,0,0,0,0,3.4923,3.4834,3.5054,3.5039,3.5038,3.5145,3.5146,3.5148,3.5091,3.5087,3.5083,3.5079,3.5169,3.5176,3.5183,3.531,0,0,3.5206,3.5209,0,0,0,0,0,0,0,0,3.4918,3.4931,3.504,3.504,3.504,3.5102,3.51,3.5202,3.5092,3.5071,3.5082,3.5077,3.5152,3.5161,3.5186,3.5314,3.5318,3.5207,3.5211,3.5214,3.5216,0,0,0,0,0,0,0,3.4911,3.4927,3.509,3.5041,3.5041,3.5026,3.5035,3.5119,3.5133,3.5072,3.5068,3.508,3.5151,3.518,3.5188,3.5319,3.5206,3.5213,3.5218,3.522,3.5552,3.5556,0,0,0,0,0,0,3.4906,3.4922,3.5087,3.5093,3.4968,3.5033,3.5044,3.5086,3.5132,3.5135,3.5083,3.5077,3.5169,3.518,3.5191,3.534,3.5214,3.5221,3.5225,3.5547,3.5553,3.5557,0,0,0,0,0,0,3.4902,3.4922,3.5084,3.5007,3.5026,3.5042,3.509,3.509,3.5118,3.514,3.5142,3.511,3.5166,3.5181,3.528,3.5342,3.5224,3.5231,3.5542,3.5549,3.5555,3.564,0,0,0,0,0,0,3.4895,3.492,3.4969,3.5008,3.503,3.5173,3.5094,3.5095,3.5131,3.5124,3.5166,3.5169,3.5164,3.5269,3.5287,3.535,3.5237,3.5537,3.5545,3.5553,3.5632,3.5649,3.5663,0,0,0,0,0,3.4887,3.499,3.4972,3.4992,3.5092,3.5176,3.5189,3.5182,3.5137,3.5185,3.5199,3.5167,3.5333,3.528,3.53,3.5366,3.5533,3.5543,3.5552,3.5624,3.5645,3.5663,0,0,0,0,0,0,3.4958,3.4995,3.4975,3.5094,3.5132,3.5166,3.5228,3.5205,3.5257,3.5247,3.5236,3.5246,3.535,3.5368,3.5308,3.5489,3.5425,3.544,3.5473,3.5493,3.5509,3.5501,3.5243,0,0,0,0,0,3.4987,3.5053,3.5081,3.5183,3.5203,3.5212,3.5249,3.524,3.5279,3.5295,3.5316,3.5355,3.5415,3.5456,3.5513,3.5634,3.5641,3.5689,3.5705,3.5718,3.573,3.5793,3.5814,3.559,3.559,3.5589,0,0,3.5048,3.5076,3.5119,3.5198,3.5227,3.5294,3.5226,3.5301,3.535,3.5306,3.5401,3.5418,3.546,3.5571,3.562,3.5589,3.5793,3.573,3.574,3.5745,3.5805,3.5826,3.5845,3.5596,3.5595,3.5594,0,0,3.5193,3.5222,3.5309,3.5339,3.5384,3.5389,3.541,3.5447,3.5457,3.5552,3.5519,3.5577,3.5683,3.5713,3.5742,3.5898,3.5869,3.5917,3.5998,3.606,3.6077,3.6093,3.6146,3.6166,3.5929,3.5929,3.5929,0,3.5263,3.5364,3.5356,3.5433,3.5467,3.5431,3.5517,3.5547,3.5608,3.5632,3.5596,3.5725,3.5752,3.5867,3.5905,3.5931,3.5953,3.5911,3.6076,3.6091,3.6106,3.6156,3.6177,3.5934,3.5934,3.5933,3.5933,0,3.5447,3.5517,3.5582,3.5641,3.5683,3.5765,3.5767,3.581,3.5798,3.5806,3.5902,3.5932,3.5993,3.602,3.6009,3.6134,3.6113,3.6077,3.6012,3.6132,3.618,3.6199,3.5942,3.594,3.5938,3.5937,0,0,3.5639,3.5692,3.5716,3.5741,3.5787,3.5841,3.592,3.598,3.6016,3.6059,3.6123,3.6212,3.6179,3.6212,3.6204,3.6258,3.6376,3.6215,3.6215,3.6242,3.6513,3.6539,3.6561,3.6358,3.6362,3.6365,3.6509,0,3.5786,3.5923,3.5917,3.6046,3.6109,3.6075,3.6143,3.6178,3.6187,3.6242,3.6252,3.6314,3.6266,3.6286,3.6338,3.6351,3.643,3.6341,3.6416,3.6419,3.6405,3.6586,3.6614,3.6749,3.6527,3.6531,3.6533,0,3.5975,3.6024,3.6159,3.6193,3.6219,3.6281,3.6334,3.6388,3.6425,3.6428,3.6465,3.6447,3.6525,3.6459,3.6565,3.6504,3.6535,3.6545,3.655,3.6556,3.6482,3.6595,3.6792,3.6811,3.6562,3.656,3.6558,0,3.6099,3.6199,3.6292,3.6315,3.6358,3.6401,3.6421,3.6455,3.6491,3.6538,3.656,3.6616,3.6645,3.6688,3.6685,3.6638,3.6791,3.6726,3.6794,3.6794,3.6827,3.6825,3.703,3.685,3.685,3.6849,3.6849,0,3.6262,3.6345,3.6348,3.6405,3.6496,3.6488,3.6578,3.6593,3.6623,3.6681,3.6655,3.671,3.6703,3.6758,3.6756,3.6843,3.6857,3.686,3.6858,3.6862,3.6861,3.688,3.687,3.6855,3.6854,3.6853,3.6852,0,3.6416,3.6421,3.652,3.6552,3.6562,3.6628,3.6655,3.6708,3.6715,3.6788,3.6805,3.6816,3.6879,3.688,3.6952,3.6951,3.7056,3.7045,3.7043,3.704,3.7108,3.7101,3.7331,3.7359,3.7163,3.7165,3.7167,0,3.6519,3.6582,3.6621,3.6658,3.668,3.6741,3.6777,3.6771,3.6809,3.6856,3.6903,3.6964,3.7011,3.7113,3.7127,3.7181,3.7169,3.7246,3.7177,3.7178,3.7168,3.7164,3.7169,3.7259,3.7262,3.7263,3.7265,0,3.6701,3.67,3.6753,3.6808,3.6852,3.6894,3.6933,3.6965,3.6963,3.7007,3.7071,3.7108,3.7181,3.7241,3.7293,3.7312,3.7288,3.7287,3.7305,3.7308,3.7304,3.7305,3.7078,3.7281,3.7279,3.7278,3.7277,3.7277,3.6831,3.6884,3.692,3.698,3.7008,3.7045,3.7096,3.7109,3.7162,3.7221,3.7214,3.7285,3.7319,3.7387,3.741,3.7464,3.7437,3.7464,3.7471,3.7477,3.7483,3.7297,3.7474,3.7473,3.7473,3.7472,3.7472,0,3.7009,3.703,3.7085,3.714,3.7187,3.7161,3.7202,3.7243,3.7305,3.7339,3.7387,3.7459,3.7516,3.7534,3.7589,3.7628,3.7618,3.7643,3.7639,3.7643,3.7505,3.7483,3.765,3.765,3.765,3.765,3.765,3.765,3.7107,3.7196,3.7199,3.73,3.732,3.7389,3.7415,3.7448,3.7474,3.7556,3.7604,3.7615,3.7642,3.7698,3.7749,3.7752,3.7773,3.7801,3.78,3.7671,3.7653,3.7636,3.7615,3.7807,3.7807,3.7933,3.7934,3.7935]},{"header":{"parameterUnit":"m.s-1","parameterCategory":1,"la1":30.2991,"la2":30.254,"lo1":-89.0895,"lo2":-89.0444,"dy":0.0017,"dx":0.0017,"nx":28,"ny":28,"refTime":"2025-07-31T03:00:00:Z","depth":0,"parameterNumber":3,"parameterNumberName":"V-component_of_WINDS"},"data":[0,0,0,0,0,0,0,0,0,0,0,0,0,0,0,0,0,0,0,0,0,0,0,0,0,0,0,0,0,0,0,0,0,0,0,0,0,0,0,0,0,0,0,0,0,0,0,0,0,0,0,0,0,0,0,0,0,0,0.5987,0.5988,0,0.6065,0.6066,0.6067,0.6053,0.6052,0.6051,0.6049,0.6133,0.6136,0.614,0,0,0,0,0,0,0,0,0,0,0,0,0,0.5828,0.5831,0.5987,0.5988,0.5989,0.6065,0.6066,0.6067,0.6054,0.6052,0.605,0.6049,0.6132,0.6136,0.614,0,0,0,0,0,0,0,0,0,0,0,0,0,0.5901,0.5832,0.5987,0.5991,0.5992,0.6065,0.6066,0.6067,0.6054,0.6052,0.605,0.6048,0.613,0.6135,0.614,0.6214,0,0,0.6156,0.6159,0,0,0,0,0,0,0,0,0.5897,0.5907,0.599,0.5991,0.5992,0.6047,0.604,0.6117,0.6055,0.6031,0.6049,0.6047,0.6106,0.6113,0.6133,0.6218,0.6221,0.6157,0.616,0.6162,0.6164,0,0,0,0,0,0,0,0.5892,0.5903,0.6018,0.5991,0.5993,0.599,0.5998,0.6055,0.6079,0.6033,0.6032,0.6041,0.6107,0.6127,0.6134,0.6223,0.6157,0.6161,0.6165,0.6167,0.6372,0.6374,0,0,0,0,0,0,0.5885,0.5899,0.6015,0.602,0.5938,0.5995,0.6004,0.6032,0.6078,0.6084,0.6043,0.604,0.612,0.6128,0.6137,0.6226,0.6162,0.6167,0.617,0.6369,0.6372,0.6375,0,0,0,0,0,0,0.5882,0.5895,0.6012,0.5959,0.5974,0.5999,0.6031,0.6034,0.6055,0.6086,0.6091,0.606,0.6118,0.613,0.6195,0.6229,0.617,0.6174,0.6367,0.637,0.6373,0.6405,0,0,0,0,0,0,0.5877,0.5894,0.5922,0.596,0.5977,0.6068,0.6033,0.6037,0.6064,0.6061,0.6103,0.6108,0.6118,0.6187,0.62,0.6235,0.6178,0.6364,0.6368,0.6372,0.6401,0.6409,0.6416,0,0,0,0,0,0.5872,0.5929,0.5924,0.5938,0.6012,0.607,0.6079,0.6088,0.6067,0.6095,0.6115,0.6107,0.6223,0.6194,0.6208,0.6246,0.6362,0.6367,0.6372,0.6398,0.6408,0.6416,0,0,0,0,0,0,0.5896,0.5934,0.5929,0.6,0.6031,0.6067,0.6104,0.6099,0.6138,0.6134,0.6144,0.6154,0.6219,0.6239,0.6206,0.6319,0.6289,0.6298,0.6304,0.6314,0.6321,0.6316,0.6183,0,0,0,0,0,0.5909,0.5952,0.5983,0.6043,0.6059,0.6078,0.6104,0.6108,0.6141,0.6155,0.618,0.6213,0.6257,0.6286,0.6329,0.6403,0.6412,0.6436,0.6444,0.645,0.6457,0.6498,0.6509,0.6392,0.6392,0.6391,0,0,0.5938,0.5964,0.5991,0.6048,0.6073,0.6118,0.609,0.6139,0.6172,0.6163,0.6225,0.6244,0.6283,0.6352,0.6385,0.6371,0.6491,0.6456,0.6461,0.6465,0.6504,0.6515,0.6525,0.6395,0.6394,0.6394,0,0,0.6013,0.6037,0.6089,0.6114,0.6152,0.6164,0.6176,0.6213,0.6225,0.6287,0.6281,0.6321,0.6397,0.6424,0.6448,0.6532,0.6526,0.6545,0.6585,0.6624,0.6634,0.6642,0.6672,0.6683,0.6552,0.6552,0.6552,0,0.6045,0.6111,0.6117,0.6166,0.6192,0.6183,0.6237,0.6261,0.6311,0.6329,0.6312,0.6407,0.6432,0.6508,0.6528,0.6548,0.6563,0.6541,0.6632,0.664,0.6648,0.6677,0.6688,0.6554,0.6554,0.6554,0.6554,0,0.6148,0.6194,0.6231,0.6278,0.6308,0.6359,0.6373,0.6403,0.6403,0.6418,0.6481,0.6511,0.6559,0.6577,0.6579,0.6653,0.6643,0.6629,0.66,0.6661,0.6689,0.67,0.6557,0.6557,0.6556,0.6555,0,0,0.6243,0.629,0.6304,0.6325,0.6365,0.6401,0.6451,0.6497,0.6522,0.6556,0.66,0.6663,0.6649,0.6676,0.6681,0.6716,0.678,0.6697,0.6698,0.6712,0.6864,0.6876,0.6888,0.6776,0.6778,0.6779,0.6861,0,0.6322,0.641,0.6416,0.6496,0.6539,0.653,0.6574,0.6604,0.6618,0.6657,0.6673,0.6718,0.6696,0.6712,0.6746,0.6765,0.6811,0.6759,0.6817,0.6819,0.6809,0.6903,0.6915,0.6991,0.6872,0.6874,0.6875,0,0.6427,0.6463,0.6547,0.6579,0.6598,0.6637,0.6679,0.6715,0.6749,0.6756,0.6786,0.6785,0.6837,0.6805,0.6877,0.6842,0.6865,0.6878,0.6881,0.6888,0.6852,0.6913,0.7015,0.7027,0.6892,0.6891,0.689,0,0.6489,0.6558,0.6617,0.6635,0.6674,0.6702,0.672,0.6751,0.6778,0.6814,0.6832,0.6874,0.6898,0.6931,0.6942,0.6917,0.7014,0.6983,0.7023,0.7023,0.7045,0.7044,0.7154,0.7059,0.7058,0.7058,0.7058,0,0.6578,0.6629,0.6644,0.6681,0.6739,0.6745,0.6802,0.6819,0.6846,0.6886,0.6881,0.6919,0.6931,0.697,0.6979,0.7038,0.7049,0.7057,0.7059,0.7058,0.7057,0.7075,0.707,0.7061,0.7061,0.706,0.7059,0,0.6657,0.6669,0.6733,0.6764,0.6773,0.6814,0.6842,0.6877,0.689,0.694,0.6952,0.6973,0.7019,0.7033,0.7089,0.7095,0.7164,0.7161,0.7153,0.7153,0.7193,0.7189,0.7319,0.7337,0.7229,0.723,0.7231,0,0.6713,0.6753,0.6788,0.6813,0.6832,0.6874,0.69,0.6908,0.6936,0.6976,0.7007,0.7052,0.7089,0.7164,0.7184,0.7227,0.7225,0.7268,0.7232,0.7229,0.7227,0.7225,0.7229,0.7275,0.7276,0.7277,0.7278,0,0.6813,0.6816,0.6854,0.6894,0.6925,0.6958,0.6988,0.701,0.7022,0.7054,0.71,0.7129,0.7185,0.7231,0.7274,0.7293,0.7288,0.7288,0.73,0.73,0.7294,0.7299,0.7172,0.7286,0.7285,0.7285,0.7284,0.7284,0.6883,0.6917,0.6947,0.6989,0.7013,0.7041,0.7076,0.7092,0.713,0.7176,0.7178,0.7229,0.726,0.7318,0.7339,0.7379,0.7367,0.7384,0.7388,0.7393,0.7396,0.7287,0.7387,0.7387,0.7387,0.7386,0.7386,0,0.6983,0.7001,0.7039,0.7082,0.7115,0.7105,0.7138,0.7167,0.7211,0.724,0.7276,0.733,0.7373,0.7396,0.744,0.7468,0.7466,0.7479,0.7478,0.7482,0.7404,0.739,0.7479,0.7479,0.7479,0.7479,0.7479,0.7479,0.7038,0.7096,0.7103,0.7172,0.719,0.7239,0.7258,0.7285,0.7308,0.7367,0.7403,0.7417,0.7444,0.7489,0.7529,0.7534,0.7551,0.7565,0.757,0.7497,0.7488,0.7479,0.7465,0.7569,0.7569,0.7644,0.7645,0.7645]}]]